Regional Weather Roundup
Issued by NWS Wakefield, VA

Home | Current Version | Previous Version | Graphics & Text | Print | Product List | Glossary On
Versions: 1 2 3 4 5 6 7 8 9 10 11 12 13 14 15 16 17 18 19 20 21 22 23 24 25 26 27
000
ASUS41 KAKQ 250115
RWRAKQ

REGIONAL WEATHER ROUNDUP
NATIONAL WEATHER SERVICE WAKEFIELD VA
900 PM EDT MON JUL 24 2017

Note: "fair" indicates few or no clouds below 12,000 feet with no
significant weather and/or obstructions to visibility. * = Denotes
station may not report precipitation (e.g., rain,snow,etc.),
thunder or fog.

VAZ042-051-052>054-056-250200-
NORTHERN VIRGINIA

CITY           SKY/WX    TMP DP  RH WIND       PRES   REMARKS
WASH NATIONAL  MOCLDY    85  75  72 S8        29.82R
DULLES         CLOUDY    81  72  74 SW5       29.84R
FORT BELVOIR   PTCLDY    81  73  76 CALM      29.82R
QUANTICO       LGT RAIN  86  73  65 SW5       29.83R
FREDERICKSBRG* MOCLDY    82  74  75 MISG      29.83R
STAFFORD*      PTCLDY    78  75  91 CALM      29.87S
WARRENTON      CLOUDY    82  67  61 W3        29.84R
CULPEPER*      CLOUDY    79  70  73 CALM      29.86R
MANASSAS*      CLOUDY    79  73  82 CALM      29.84R
LEESBURG*      CLOUDY    81  75  83 W5        29.86R
WINCHESTER     MOCLDY    79  63  57 NW8       29.88R
FRONT ROYAL*   PTCLDY    82  63  51 W5        29.87R
LURAY*         PTCLDY    81  63  54 SW3       29.89R
$$

VAZ048-049-060>072-079>083-250200-
CENTRAL AND SOUTH CENTRAL VIRGINIA

CITY           SKY/WX    TMP DP  RH WIND       PRES   REMARKS
RICHMOND       MOCLDY    82  71  69 SW7       29.86R
CHESTERFIELD*  NOT AVBL
PETERSBURG*    PTCLDY    76  69  81 CALM      29.88R
HANOVER        PTCLDY    78  71  79 CALM      29.87R
TAPPAHANNOCK*  PTCLDY    83  63  51 SE3       29.85S
QUINTON*       FAIR      80  78  94 CALM      29.85R
CHARLOTTSVILLE PTCLDY    82  69  64 VRB3      29.88R
GORDONSVILLE*  CLOUDY    77  71  83 CALM      29.86R
ORANGE*        CLOUDY    77  70  78 CALM      29.86R
LOUISA*        CLOUDY    73  70  88 CALM      29.86R
BUMPASS*       FAIR      79  72  80 CALM      29.86R
FARMVILLE*     PTCLDY    83  68  60 SW5       29.88R
CREWE*         FAIR      80  68  65 CALM      29.89R
FORT PICKETT*  FAIR     N/A N/A N/A SW5       29.89R
CHASE CITY*    FAIR      80  72  78 CALM      29.91R
CLARKSVILLE*   FAIR      79  72  78 S3        29.91R
SOUTH HILL*    CLEAR     80  71  74 CALM      29.96R
LAWRENCEVILLE* FAIR      82  68  63 CALM      29.89R
EMPORIA*       CLEAR     79  68  69 CALM      29.90R
$$

VAZ088>098-250200-
SOUTHEAST VIRGINIA

CITY           SKY/WX    TMP DP  RH WIND       PRES   REMARKS
NORFOLK        CLEAR     84  75  74 SW9       29.87R
VIRGINIA BEACH PTCLDY    82  73  74 S6        29.87R
NORFOLK NAVAL  PTCLDY    85  74  69 S8        29.89R
WEST POINT*    CLEAR     81  73  76 CALM      29.86S
SALUDA*        FAIR      82  77  87 S3        29.85R
NEWPORT NEWS   CLEAR     84  76  76 S10       29.86R
LANGLEY AFB    CLEAR     84  76  76 S12       29.86R
FORT EUSTIS    CLEAR     84  77  79 S7        29.85R HX  95
WILLIAMSBURG*  CLEAR     88  79  74 CALM      29.87R HX 102
HR EXEC AP*    FAIR      81  73  78 S6        29.86R
FRANKLIN*      CLEAR     81  75  83 S5        29.89R
US460-WAKEFLD  CLEAR     83  78  85 S3        29.88R
$$

VAZ020-022-025-037-045-250200-
WEST CENTRAL AND SOUTHWEST VIRGINIA

CITY           SKY/WX    TMP DP  RH WIND       PRES   REMARKS
STAUNTON*      CLOUDY    77  63  61 CALM      29.95R
WAYNESBORO*    PTCLDY    80  63  56 SW7       29.95R
HOT SPRINGS VA MOCLDY    68  55  64 W12       30.11R
LYNCHBURG      PTCLDY   N/A N/A N/A SW3       29.94R
DANVILLE       CLEAR     79  73  82 SW3       29.93R
SOUTH BOSTON*  FAIR      82  69  62 SW3       29.91R
MARTINSVILLE   PTCLDY    76  73  88 CALM      29.98R
ROANOKE        MOCLDY    84  62  47 NW12      29.99R
BLACKSBURG     CLOUDY    76  64  66 CALM      30.07R
DUBLIN*        CLOUDY    79  56  44 CALM      30.05R
MARION*        DRIZZLE   70  65  85 SW3       30.12R
HILLSVILLE*    MOCLDY    77  59  53 CALM      30.07R
RICHLANDS*     CLOUDY    69  65  87 CALM      30.10R
WISE*          CLOUDY    72  64  78 S3        30.11R
ABINGDON*      CLOUDY    81  67  63 CALM      30.06R
$$

MDZ021>025-VAZ099-100-250200-
SOUTHERN MARYLAND AND THE DELMARVA PENINSULA

CITY           SKY/WX    TMP DP  RH WIND       PRES   REMARKS
PATUXENT RIVER CLOUDY    80  76  87 S7        29.83S
BAY BRIDGE APT PTCLDY    82  73  74 S7        29.81
LEONARDTOWN    PTCLDY    79  72  78 SE3       29.86R
DOVER          CLEAR     79  79 100 SE3       29.81S
GEORGETOWN     CLEAR     79  72  79 S3        29.83F
EASTON         PTCLDY    82  72  69 S5        29.86R
CAMBRIDGE      CLEAR     81  72  74 CALM      29.82S
SALISBURY      CLEAR     79  73  83 CALM      29.83F
OCEAN CITY     CLEAR     78  73  84 S6        29.84F
WALLOPS ISLAND CLEAR     77  75  93 S8        29.86S
ACCOMACK*      CLEAR     79  74  85 S6        29.86S
$$

NCZ012>017-030>032-250200-
NORTH CENTRAL AND EASTERN NORTH CAROLINA

CITY           SKY/WX    TMP DP  RH WIND       PRES   REMARKS
ROANOKE RAPIDS FAIR      81  72  74 S6        29.90R
RALEIGH        MOCLDY    82  68  62 S3        29.94R
ELIZABETH CITY CLEAR     80  78  94 SW6       29.90R
AHOSKIE*         N/A     80  75  86 S5        29.90R
EDENTON*       CLEAR     85  76  74 CALM      29.91R HX  95
CURRITUCK*     CLEAR     82  78  87 S3        29.90R
KILL DEVIL HLS CLEAR     83  75  76 SW3       29.90R
MANTEO         PTCLDY    83  78  84 SW16      29.91R
CAPE HATTERAS  CLEAR     79  76  90 SW13      29.94R
TARBORO*       NOT AVBL
GOLDSBORO      CLEAR     84  78  82 SW5       29.93R HX  95
WASHINGTON     CLEAR     83  74  73 SW8       29.93R
GREENVILLE     CLEAR     82  73  74 SW7       29.95R
NEW BERN       PTCLDY    82  78  88 S7        29.95R
WILMINGTON     MOCLDY    80  76  87 SW10      29.96F
$$

VAZ048-250200-
ELSEWHERE

CITY           SKY/WX    TMP DP  RH WIND       PRES   REMARKS
HARRISBURG PA  MOCLDY    74  71  91 NW6       29.83S
BALTIMORE      CLOUDY    80  75  84 CALM      29.80S
ANNAPOLIS      PTCLDY    85  75  72 S6        29.81S
ANDREWS AFB    CLEAR     79  73  79 S7        29.83R
PHILADELPHIA   TSTM      71  68  90 VRB5      29.88R FOG
HENDERSON NC   CLEAR     78  67  69 SW6       29.93R
GREENSBORO     MOCLDY    82  68  62 SW6       29.95R
ROCKY MOUNT    CLEAR     81  77  88 S5        29.93R
$$

VAZ100-250200-
MARINE

STATION/POSITION TIME  TEMP    WIND        PRES    WAVE   SWELL
                       AIR SEA DIR/SP/G            HT/PER HT/PER
                 (UTC) (F)     (DEG/KT/KT) (MB)    (FT/S) (FT/S)
BRANDYWINE LGT   0042   75     110/ 14/ 15 1010.7R
CAPE MAY NJ      0042   75 76   90/  6/ 10 1010.1R
LEWES DE         0042   81 75  180/  2/  3 1010.0R
15NM E FENWICK I 0050   76 78  200/ 12/ 12 1010.8S   3/ 7   2/ 7
OCEAN-CITY-INLET 0042   75 72  190/  5/  7 1010.9F
WACHAPREAGUE VA  0042   80 83  170/  6/  8 1011.1R
THOMAS POINT MD  0100   84 84  190/ 14/ 15   N/A
GOOSES REEF MD   0100   85 84  210/ 14/ 16 1010.2    1/ 2
COVE POINT MD    0042   83     190/ 15/ 18 1010.5F
SOLOMONS ISLAND  0042   83 84  170/  9/ 11   N/A
BISHOPS HEAD MD  0042   83 85  180/ 12/ 13 1010.4F
PINEY POINT MD   0042          180/ 11/ 12   N/A
POTOMAC MD       0100   84 83  170/ 12/ 14 1009.3    1/ 3
CAMBRIDGE MD     0042   82 87              1010.7F
LEWISETTA VA     0042   83 87  180/  7/  9 1010.3F
RAPPAHANNOCK LGT 0042          140/ 11/ 12 1011.4S
STINGRAY PT      0100   85 85  200/ 12/ 14 1010.9    1/ 2
YORK RVR RNG VA  0042   85     210/ 13/ 14 1011.3R
YORKTOWN VA      0042   85 83  200/  7/  9 1010.8R
JAMESTOWN VA     0100      87  210/  8/ 10   N/A
DOMINION TERM VA 0042   84     200/ 10/ 12 1011.5R
KIPTOPEKE VA     0042      81  170/  6/  7   N/A
CHES BAY BRIDGE  0042   84 73  220/ 12/ 15 1011.3R
CAPE HENRY VA    0042   84     200/  7/ 10   N/A
WILLOUBY STN VA  0042   85     210/ 12/ 15 1011.4R
S CRANEY ISL VA  0042   85     210/  8/ 12 1011.3R
CAPE HENRY BUOY  0100      68                N/A     2/ 6
1ST LANDING BUOY 0100   84 80              1011.3    2/ 3
64NM E OF VA BCH 0050   80 80  210/ 10/ 10 1012.7R   4/ 6   3/ 6
DUCK PIER NC     0042   85 65  230/ 10/ 11 1012.0R
44100 DUCK FRF   0005      79                N/A     3/ 8
44056 DUCK FRF   0100      73                N/A     2/ 5
OREGON INLET NC  0042   82 83  200/ 18/ 21 1012.8R
HATTERAS NC      0042   79 79  220/ 11/ 14 1013.7R
DIAMOND SHLS NC  0050   83 84  230/ 21/ 25 1013.4R   6/ 7   2/11
CAPE LOOKOUT NC  0100   81     220/ 12/ 20 1014.5R
$$




USA.gov is the U.S. government's official web portal to all federal, state and local government web resources and services.